星链-2175 (STARLINK-2175 )

导读

STARLINK-2175是美国SpaceX公司星链星座的组网卫星,于2021年3月4日发射入轨。该卫星部署在约550千米近地轨道,属于星链一代卫星,工作于Ku、Ka频段,主要为全球偏远及通信欠发达区域提供低延迟宽带互联网接入服务,是星链全球星座组网的重要组成部分,助力构建覆盖全球的低轨卫星通信网络。

基本信息
目录编号:
47757
目录名称:
STARLINK-2175
国际标识:
2021-017AM
轨道中心:
EARTH
卫星名称:
星链-2175
卫星全名:
星链-2175 (STARLINK-2175 )
卫星状态:
已陨落 最后检测时间 2025-02-19
发射日期:
2021-03-04 UTC
国别 :
美国 (US)
星等 :
--
轨道信息
数据来源 国际轨道数据
星历时间: 2025-02-18T22:44:19+0800
轨道信息已过期485天
半长轴: 6539.233km
偏心率: 0.0001702
轨道倾角: 53.019°
近地点辐角 14.647°
升交点赤经 92.489°
平近点角 74.063°
近地点: 159.985km
远地点: 162.211km
周期: 87.710分钟
每日圈数: 16.417711
详细信息
固有亮度:
5
最大亮度:
2.5
卫星平台:
Starlink V1.0
覆盖范围:
全球
运营商:
太空探索技术公司
运营商所在国:
美国
制造商(研发单位):
太空探索技术公司
制造商所在国:
美国
使用方式:
暂无
卫星简介
星链(Starlink)计划是由太空探索技术公司(SpaceX)提出的一个巨型低轨卫星互联网星座项目,计划在2019年至2024年间在太空搭建由约1.2万颗卫星组成的“星链”网络,其中1584颗将部署在地球上空550千米处的近地轨道,并从2020年开始工作。该卫星仍在工作。